| time (UTC) | temp C | wind direction | speed KPH | gust KPH | rain 1hr cm | rain 24hr cm | rain mn cm | humidity % | barometer mb |
| 20260506211017 | 5 | 0.0 | 0.0 | 0.00 | 0.00 | 0.00 | 62 | 1012.2 | |
| 20260506210033 | 5 | 188 | 0.0 | 1.6 | 0.00 | 0.00 | 0.00 | 64 | 1012.3 |
| 20260506205028 | 6 | 182 | 0.0 | 1.6 | 0.00 | 0.00 | 0.00 | 61 | 1012.2 |
| 20260506204023 | 6 | 217 | 1.6 | 1.6 | 0.00 | 0.00 | 0.00 | 60 | 1012.0 |
| 20260506203019 | 5 | 203 | 0.0 | 1.6 | 0.00 | 0.00 | 0.00 | 68 | 1012.1 |
| 20260506202034 | 5 | 169 | 1.6 | 3.2 | 0.00 | 0.00 | 0.00 | 65 | 1012.1 |
| 20260506201030 | 6 | 190 | 1.6 | 3.2 | 0.00 | 0.00 | 0.00 | 62 | 1012.3 |
| 20260506200025 | 6 | 224 | 1.6 | 3.2 | 0.00 | 0.00 | 0.00 | 65 | 1012.1 |
| 20260506195039 | 6 | 205 | 0.0 | 1.6 | 0.00 | 0.00 | 0.00 | 64 | 1012.2 |
| 20260506194015 | 6 | 0.0 | 0.0 | 0.00 | 0.00 | 0.00 | 63 | 1012.0 | |
| 20260506193031 | 6 | 0.0 | 0.0 | 0.00 | 0.00 | 0.00 | 62 | 1012.2 | |
| 20260506192026 | 7 | 177 | 0.0 | 1.6 | 0.00 | 0.00 | 0.00 | 60 | 1012.3 |
| 20260506191021 | 7 | 179 | 0.0 | 1.6 | 0.00 | 0.00 | 0.00 | 62 | 1012.3 |
| 20260506190017 | 7 | 127 | 1.6 | 4.8 | 0.00 | 0.00 | 0.00 | 60 | 1012.2 |
| 20260506185032 | 7 | 186 | 0.0 | 3.2 | 0.00 | 0.00 | 0.00 | 61 | 1012.2 |
| 20260506184028 | 7 | 169 | 0.0 | 3.2 | 0.00 | 0.00 | 0.00 | 58 | 1012.1 |
| 20260506183023 | 7 | 164 | 0.0 | 3.2 | 0.00 | 0.00 | 0.00 | 60 | 1012.1 |
| 20260506182018 | 8 | 143 | 1.6 | 3.2 | 0.00 | 0.00 | 0.00 | 60 | 1012.1 |
| 20260506181034 | 8 | 176 | 0.0 | 1.6 | 0.00 | 0.00 | 0.00 | 59 | 1011.9 |
| 20260506180050 | 8 | 155 | 1.6 | 4.8 | 0.00 | 0.00 | 0.00 | 59 | 1011.9 |
| 20260506175025 | 8 | 133 | 1.6 | 6.4 | 0.00 | 0.00 | 0.00 | 58 | 1012.0 |
| 20260506174039 | 8 | 151 | 1.6 | 4.8 | 0.00 | 0.00 | 0.00 | 57 | 1012.0 |
| 20260506173035 | 8 | 156 | 3.2 | 6.4 | 0.00 | 0.00 | 0.00 | 57 | 1011.9 |
| 20260506172029 | 8 | 131 | 3.2 | 6.4 | 0.00 | 0.00 | 0.00 | 56 | 1012.0 |
| 20260506171145 | 8 | 100 | 3.2 | 6.4 | 0.00 | 0.00 | 0.00 | 55 | 1011.9 |
| 20260506170019 | 9 | 156 | 3.2 | 6.4 | 0.00 | 0.00 | 0.00 | 54 | 1011.9 |
| 20260506165036 | 10 | 150 | 3.2 | 4.8 | 0.00 | 0.00 | 0.00 | 53 | 1012.0 |
| 20260506164030 | 11 | 172 | 1.6 | 3.2 | 0.00 | 0.00 | 0.00 | 44 | 1011.9 |
| 20260506163026 | 11 | 220 | 3.2 | 11.3 | 0.00 | 0.00 | 0.00 | 37 | 1012.0 |
| 20260506162042 | 11 | 192 | 4.8 | 12.9 | 0.00 | 0.00 | 0.00 | 36 | 1011.9 |
| 20260506161017 | 11 | 185 | 3.2 | 9.7 | 0.00 | 0.00 | 0.00 | 40 | 1011.9 |
| 20260506160033 | 10 | 178 | 3.2 | 6.4 | 0.00 | 0.00 | 0.00 | 47 | 1012.0 |
| 20260506155048 | 10 | 155 | 1.6 | 4.8 | 0.00 | 0.00 | 0.00 | 46 | 1012.0 |
| 20260506154043 | 10 | 100 | 8.0 | 16.1 | 0.00 | 0.00 | 0.00 | 46 | 1012.0 |
| 20260506153018 | 10 | 144 | 4.8 | 12.9 | 0.00 | 0.00 | 0.00 | 46 | 1012.1 |
| 20260506152053 | 10 | 137 | 3.2 | 11.3 | 0.00 | 0.00 | 0.00 | 45 | 1012.2 |
| 20260506151028 | 11 | 126 | 4.8 | 9.7 | 0.00 | 0.00 | 0.00 | 44 | 1012.1 |
| 20260506150023 | 12 | 199 | 1.6 | 4.8 | 0.00 | 0.00 | 0.00 | 33 | 1012.3 |
| 20260506145018 | 12 | 210 | 4.8 | 9.7 | 0.00 | 0.00 | 0.00 | 32 | 1012.3 |
| 20260506144034 | 12 | 213 | 3.2 | 11.3 | 0.00 | 0.00 | 0.00 | 33 | 1012.4 |
| 20260506143029 | 12 | 187 | 3.2 | 6.4 | 0.00 | 0.00 | 0.00 | 33 | 1012.4 |
| 20260506142024 | 11 | 215 | 4.8 | 6.4 | 0.00 | 0.00 | 0.00 | 34 | 1012.6 |
| 20260506141020 | 11 | 232 | 6.4 | 12.9 | 0.00 | 0.00 | 0.00 | 34 | 1012.7 |
| 20260506140015 | 11 | 255 | 9.7 | 17.7 | 0.00 | 0.00 | 0.00 | 35 | 1012.8 |
| 20260506135030 | 11 | 239 | 8.0 | 14.5 | 0.00 | 0.00 | 0.00 | 34 | 1012.8 |
| 20260506134026 | 11 | 213 | 4.8 | 6.4 | 0.00 | 0.00 | 0.00 | 35 | 1012.8 |
| 20260506133021 | 12 | 206 | 6.4 | 14.5 | 0.00 | 0.00 | 0.00 | 33 | 1012.8 |
| 20260506132017 | 11 | 197 | 4.8 | 11.3 | 0.00 | 0.00 | 0.00 | 34 | 1013.0 |
| 20260506131032 | 12 | 207 | 4.8 | 14.5 | 0.00 | 0.00 | 0.00 | 33 | 1013.1 |
| 20260506130047 | 11 | 254 | 6.4 | 12.9 | 0.00 | 0.00 | 0.00 | 32 | 1012.9 |
| 20260506125022 | 11 | 241 | 6.4 | 11.3 | 0.00 | 0.00 | 0.00 | 32 | 1013.0 |
| 20260506124017 | 12 | 242 | 6.4 | 12.9 | 0.00 | 0.00 | 0.00 | 31 | 1013.0 |
| 20260506123032 | 11 | 253 | 8.0 | 16.1 | 0.00 | 0.00 | 0.00 | 32 | 1013.0 |
| 20260506122028 | 11 | 248 | 9.7 | 17.7 | 0.00 | 0.00 | 0.00 | 32 | 1012.8 |
| 20260506121024 | 12 | 230 | 6.4 | 14.5 | 0.00 | 0.00 | 0.00 | 31 | 1012.8 |
| 20260506120018 | 10 | 250 | 4.8 | 14.5 | 0.00 | 0.00 | 0.00 | 32 | 1013.0 |
| 20260506115034 | 11 | 252 | 6.4 | 12.9 | 0.00 | 0.00 | 0.00 | 31 | 1013.0 |
| 20260506114029 | 10 | 231 | 1.6 | 6.4 | 0.00 | 0.00 | 0.00 | 31 | 1013.1 |
| 20260506113024 | 10 | 244 | 4.8 | 12.9 | 0.00 | 0.00 | 0.00 | 32 | 1013.2 |
| 20260506112019 | 11 | 252 | 9.7 | 16.1 | 0.00 | 0.00 | 0.00 | 32 | 1013.2 |
| 20260506111035 | 10 | 252 | 6.4 | 11.3 | 0.00 | 0.00 | 0.00 | 33 | 1013.2 |
| 20260506110031 | 10 | 239 | 4.8 | 14.5 | 0.00 | 0.00 | 0.00 | 32 | 1013.3 |
| 20260506105045 | 10 | 252 | 8.0 | 12.9 | 0.00 | 0.00 | 0.00 | 35 | 1013.3 |
| 20260506104020 | 9 | 254 | 8.0 | 12.9 | 0.00 | 0.00 | 0.00 | 35 | 1013.4 |
| 20260506103016 | 10 | 233 | 6.4 | 12.9 | 0.00 | 0.00 | 0.00 | 34 | 1013.4 |
| 20260506102031 | 10 | 260 | 6.4 | 12.9 | 0.00 | 0.00 | 0.00 | 34 | 1013.4 |
| 20260506101026 | 8 | 258 | 8.0 | 14.5 | 0.00 | 0.00 | 0.00 | 35 | 1013.6 |
| 20260506100022 | 9 | 217 | 4.8 | 9.7 | 0.00 | 0.00 | 0.00 | 33 | 1013.5 |
| 20260506095038 | 8 | 242 | 4.8 | 11.3 | 0.00 | 0.00 | 0.00 | 34 | 1013.6 |
| 20260506094053 | 10 | 215 | 3.2 | 6.4 | 0.00 | 0.00 | 0.00 | 35 | 1013.6 |
| 20260506093109 | 10 | 244 | 4.8 | 11.3 | 0.00 | 0.00 | 0.00 | 35 | 1013.6 |
| 20260506092024 | 8 | 206 | 1.6 | 4.8 | 0.00 | 0.00 | 0.00 | 38 | 1013.8 |
| 20260506091018 | 10 | 252 | 8.0 | 12.9 | 0.00 | 0.00 | 0.00 | 38 | 1013.7 |
| 20260506090034 | 10 | 168 | 1.6 | 4.8 | 0.00 | 0.00 | 0.00 | 37 | 1013.6 |
| 20260506085030 | 10 | 170 | 3.2 | 11.3 | 0.00 | 0.00 | 0.00 | 37 | 1013.8 |
| 20260506084025 | 9 | 214 | 4.8 | 11.3 | 0.00 | 0.00 | 0.00 | 36 | 1013.9 |
| 20260506083039 | 9 | 237 | 3.2 | 9.7 | 0.00 | 0.00 | 0.00 | 38 | 1014.0 |
| 20260506082041 | 9 | 166 | 3.2 | 9.7 | 0.00 | 0.00 | 0.00 | 38 | 1014.0 |
| 20260506081031 | 9 | 148 | 1.6 | 6.4 | 0.00 | 0.00 | 0.00 | 41 | 1013.9 |
| 20260506073032 | 7 | 218 | 3.2 | 6.4 | 0.00 | 0.00 | 0.00 | 44 | 1014.1 |
| 20260506072028 | 7 | 242 | 3.2 | 4.8 | 0.00 | 0.00 | 0.00 | 44 | 1014.0 |
| 20260506071022 | 8 | 190 | 1.6 | 4.8 | 0.00 | 0.00 | 0.00 | 43 | 1014.0 |
| 20260506062019 | 5 | 237 | 3.2 | 4.8 | 0.00 | 0.00 | 0.00 | 54 | 1013.9 |
| 20260506061034 | 5 | 225 | 4.8 | 6.4 | 0.00 | 0.00 | 0.00 | 59 | 1013.8 |
| 20260506051026 | 2 | 227 | 3.2 | 4.8 | 0.00 | 0.00 | 0.00 | 73 | 1013.6 |
| 20260506045037 | 1 | 229 | 1.6 | 3.2 | 0.00 | 0.03 | 0.00 | 76 | 1013.5 |
| 20260506044032 | 0 | 197 | 0.0 | 1.6 | 0.00 | 0.03 | 0.00 | 82 | 1013.6 |
| 20260506043028 | 0 | 0.0 | 0.0 | 0.00 | 0.03 | 0.00 | 83 | 1013.5 | |
| 20260506042022 | 0 | 0.0 | 0.0 | 0.00 | 0.03 | 0.00 | 83 | 1013.5 | |
| 20260506041018 | 0 | 184 | 0.0 | 1.6 | 0.00 | 0.03 | 0.00 | 85 | 1013.4 |
| 20260506040034 | -1 | 0.0 | 0.0 | 0.00 | 0.03 | 0.00 | 91 | 1013.3 | |
| 20260506035029 | -2 | 0.0 | 0.0 | 0.00 | 0.03 | 0.00 | 93 | 1013.3 | |
| 20260506034044 | -3 | 0.0 | 0.0 | 0.00 | 0.03 | 0.00 | 93 | 1013.2 | |
| 20260506033019 | -3 | 0.0 | 0.0 | 0.00 | 0.03 | 0.00 | 92 | 1013.1 | |
| 20260506032035 | -3 | 171 | 0.0 | 1.6 | 0.00 | 0.03 | 0.00 | 94 | 1012.9 |
| 20260506031030 | -3 | 0.0 | 0.0 | 0.00 | 0.03 | 0.00 | 93 | 1012.8 | |
| 20260506030026 | -3 | 0.0 | 0.0 | 0.00 | 0.03 | 0.00 | 92 | 1012.8 | |
| 20260506025041 | -2 | 0.0 | 0.0 | 0.00 | 0.03 | 0.00 | 91 | 1012.7 | |
| 20260506024017 | -2 | 169 | 1.6 | 1.6 | 0.00 | 0.03 | 0.00 | 90 | 1012.8 |
| 20260506023032 | -2 | 0.0 | 0.0 | 0.00 | 0.03 | 0.00 | 90 | 1012.7 | |
| 20260506022027 | -2 | 0.0 | 0.0 | 0.00 | 0.03 | 0.00 | 89 | 1012.7 | |
| 20260506021022 | -2 | 0.0 | 0.0 | 0.00 | 0.03 | 0.00 | 87 | 1012.4 | |
| 20260506020058 | -1 | 0.0 | 0.0 | 0.00 | 0.03 | 0.00 | 86 | 1012.5 | |
| 20260506015033 | -1 | 175 | 0.0 | 1.6 | 0.00 | 0.03 | 0.00 | 84 | 1012.4 |
| 20260506014029 | -1 | 215 | 1.6 | 3.2 | 0.00 | 0.03 | 0.00 | 82 | 1012.2 |
| 20260506013043 | -1 | 222 | 0.0 | 3.2 | 0.00 | 0.03 | 0.00 | 83 | 1012.1 |
| 20260506012039 | -1 | 208 | 0.0 | 3.2 | 0.00 | 0.03 | 0.00 | 83 | 1012.1 |
| 20260506011115 | 0 | 195 | 0.0 | 3.2 | 0.00 | 0.03 | 0.00 | 80 | 1012.1 |
| 20260506010049 | 0 | 223 | 1.6 | 3.2 | 0.00 | 0.03 | 0.00 | 77 | 1012.0 |
| 20260506005025 | 0 | 249 | 3.2 | 6.4 | 0.00 | 0.03 | 0.00 | 75 | 1011.9 |
| 20260506004020 | 0 | 232 | 1.6 | 4.8 | 0.00 | 0.03 | 0.00 | 76 | 1011.8 |
| 20260506003056 | 0 | 232 | 3.2 | 4.8 | 0.00 | 0.03 | 0.00 | 76 | 1011.7 |
| 20260506002031 | 0 | 226 | 3.2 | 4.8 | 0.00 | 0.03 | 0.00 | 77 | 1011.4 |
| 20260506001027 | 0 | 226 | 1.6 | 3.2 | 0.00 | 0.03 | 0.00 | 77 | 1011.5 |
| 20260506000022 | 0 | 211 | 0.0 | 1.6 | 0.00 | 0.03 | 0.00 | 78 | 1011.4 |
| 20260505235018 | 0 | 213 | 0.0 | 1.6 | 0.00 | 0.05 | 0.00 | 78 | 1011.2 |
| 20260505234033 | 1 | 219 | 1.6 | 3.2 | 0.00 | 0.08 | 0.00 | 77 | 1011.3 |
| 20260505233048 | 1 | 244 | 3.2 | 4.8 | 0.00 | 0.10 | 0.00 | 77 | 1011.1 |
| 20260505232024 | 1 | 228 | 1.6 | 4.8 | 0.00 | 0.15 | 0.00 | 76 | 1011.2 |
| 20260505231040 | 1 | 219 | 1.6 | 3.2 | 0.00 | 0.18 | 0.00 | 75 | 1011.0 |
| 20260505230035 | 1 | 215 | 1.6 | 4.8 | 0.00 | 0.28 | 0.00 | 76 | 1011.0 |
| 20260505225030 | 1 | 236 | 3.2 | 4.8 | 0.00 | 0.38 | 0.00 | 75 | 1011.1 |
| 20260505224025 | 1 | 237 | 1.6 | 4.8 | 0.00 | 0.48 | 0.00 | 76 | 1011.2 |
| 20260505223020 | 1 | 239 | 1.6 | 4.8 | 0.00 | 0.58 | 0.00 | 75 | 1011.0 |
| 20260505222016 | 1 | 226 | 1.6 | 4.8 | 0.00 | 0.66 | 0.00 | 74 | 1010.9 |
| 20260505221032 | 1 | 230 | 3.2 | 6.4 | 0.00 | 0.76 | 0.00 | 74 | 1010.9 |
| 20260505220027 | 1 | 246 | 3.2 | 11.3 | 0.00 | 0.86 | 0.86 | 73 | 1010.8 |
| 20260505215023 | 2 | 193 | 1.6 | 3.2 | 0.00 | 0.91 | 0.86 | 73 | 1010.7 |
| 20260505214018 | 2 | 246 | 3.2 | 11.3 | 0.00 | 0.94 | 0.86 | 71 | 1010.6 |
| 20260505213034 | 2 | 243 | 3.2 | 6.4 | 0.00 | 0.97 | 0.86 | 71 | 1010.6 |
| 20260505212028 | 2 | 227 | 1.6 | 3.2 | 0.00 | 1.02 | 0.86 | 72 | 1010.5 |